Location: ?????
(38.2579°N, 22.9711°E)
Time: 23:55:34
(UTC+00:00)

CORIOLIS - Pass Details

Date: 13 December 2025
Orbit: 816 x 835 km, 98.7° (Epoch: 14 January)

Event Time Altitude Azimuth Distance (km) Brightness Sun altitude
Rises 15:51:56 0° 165° (SSE) 3,328 7.4 -8.5°
Reaches altitude 10° 15:54:15 10° 165° (SSE) 2,399 6.7 -8.9°
Maximum altitude 15:59:34 90° 115° (ESE) 822 4.2 -9.9°
Drops below altitude 10° 16:04:56 10° 347° (NNW) 2,417 6.5 -10.9°
Sets 16:07:17 0° 347° (NNW) 3,355 7.2 -11.3°
